Regional Weather Roundup
Issued by NWS

Home | Current Version | Previous Version | Text Only | Print | Product List | Glossary Off
Versions: 1 2 3 4 5 6 7 8 9 10 11 12 13 14 15 16 17 18 19 20 21 22 23 24 25 26 27 28 29 30 31 32 33 34 35 36 37 38 39 40 41 42 43 44 45 46 47 48 49 50

000
ASUS45 KBOU 032107
RWRCO

WEATHER ROUNDUP FOR COLORADO
NATIONAL WEATHER SERVICE DENVER/BOULDER CO
300 PM MDT SUN MAY 03 2015

NOTE: "FAIR" INDICATES FEW OR NO CLOUDS BELOW 12000 FEET WITH NO
SIGNIFICANT WEATHER AND/OR OBSTRUCTIONS TO VISIBILITY.

COZ001>005-013-030-031-032200-
...NORTHWEST COLORADO...

CITY           SKY/WX    TMP DP  RH WIND       PRES   REMARKS
CRAIG          PTSUNNY   68  34  28 S16G22    29.99F
HAYDEN         CLOUDY    66  28  24 SW15G23   30.02S
MEEKER         LGT RAIN  59  35  40 SW12      30.07R
MOUNT WERNER   NOT AVBL
STEAMBOAT SPGS CLOUDY    63  34  33 S14G22    30.04S
WALDEN         CLOUDY    59  25  27 SW14G21   30.09R
$$

COZ006>008-011-032200-
...WEST CENTRAL VALLEYS...

CITY           SKY/WX    TMP DP  RH WIND       PRES   REMARKS
GRAND JUNCTION PTSUNNY   73  31  21 CALM      29.92F
MONTROSE       CLOUDY    67  35  30 S9        30.03S
EAGLE          MOSUNNY   72  30  21 W7G25     30.02R
RIFLE          CLOUDY    68  32  26 N13G28    29.97R
DELTA          NOT AVBL
NUCLA          CLOUDY    72  32  23 W8G16     30.04F
$$

COZ017>023-064>068-032200-
...SOUTHWEST COLORADO...

CITY           SKY/WX    TMP DP  RH WIND       PRES   REMARKS
DURANGO        SUNNY     68  30  24 MISG      30.04F
CORTEZ         MOSUNNY   69  34  27 W12       30.03S
PAGOSA SPRINGS CLOUDY    57  36  45 NE18G28   30.13S
TELLURIDE      PTSUNNY   55  33  43 E7        30.18F
WOLF CREEK PAS NOT AVBL
$$

COZ009-010-012-014-032>034-037-058>063-032200-
...CENTRAL COLORADO...

CITY           SKY/WX    TMP DP  RH WIND       PRES   REMARKS
ASPEN          CLOUDY    61  27  27 E9        30.06F
BUENA VISTA    NOT AVBL
COPPER MTN     CLOUDY    45  21  39 SW9       30.31S
BERTHOUD PASS  CLOUDY    34  27  75 NE5G26    30.36R WCI  30
COTTONWOOD PAS CLOUDY    48  30  49 W14G23    30.22R
GUNNISON       CLOUDY    48  36  61 S13G22    30.18R
KREMMLING      LGT RAIN  55  28  35 W8G24     30.10R
LEADVILLE      CLOUDY    49  23  36 N12G17    30.19S
MONARCH PASS   CLOUDY    37  27  65 N6        30.43S
SALIDA         CLOUDY    67  25  20 S13G21    30.15F
SUNLIGHT       CLOUDY    46  30  53 CALM      30.27F THUNDER
WILKERSON PASS CLOUDY    41  28  60 NE7       30.32S
$$

COZ069>075-032200-
...SAN LUIS VALLEY/SANGRE DE CRISTO MOUNTAINS...

CITY           SKY/WX    TMP DP  RH WIND       PRES   REMARKS
ALAMOSA        PTSUNNY   66  26  22 W14G22    30.07F
LA VETA PASS   CLOUDY    50  32  50 MISG      30.25R
SAGUACHE       CLOUDY    63  30  29 NW23G29   30.11F
$$

COZ035-036-038>040-032200-
...NORTHERN COLORADO FRONT RANGE...

CITY           SKY/WX    TMP DP  RH WIND       PRES   REMARKS
DENVER INTL AP PTSUNNY   71  38  29 E10       29.96F
DMNS CITY PARK   N/A     72  34  25 SW3G10    29.96S
AURORA         NOT AVBL
FRONT RANGE AP PTSUNNY   72  39  30 E10G18    29.98S
ERIE MUNI ARPT CLOUDY    70  33  25 S9        29.95S
BOULDER MUN AP CLOUDY    68  36  30 E3G20     29.97R
CENTENNIAL     CLOUDY    69  36  29 S7        30.00R
BROOMFIELD     CLOUDY    68  34  28 S8        29.99R
FORT COLLINS   CLOUDY    66  36  32 S12G18    29.96F
LONGMONT       CLOUDY    66  39  37 N18G31    29.97R
$$

COZ041-046-047-076>085-087-088-032200-
...PIKES PEAK/PALMER DIVIDE AND SOUTHERN FOOTHILLS...

CITY           SKY/WX    TMP DP  RH WIND       PRES   REMARKS
COLO. SPRINGS  CLOUDY    71  31  22 E22G28    30.01S
A. F. ACADEMY  NOT AVBL
ELLICOTT       CLOUDY   N/A N/A N/A VRB5      30.02F THUNDER
FALCON         CLOUDY    65  33  30 SE22G29   30.07R
FORT CARSON    NOT AVBL
LIMON          PTSUNNY   73  30  20 N7G17     29.95F
MONUMENT HILL  CLOUDY    61  34  36 NW12G18   30.06S
TRINIDAD       CLOUDY    72  31  22 W5        29.96S
$$

COZ042>045-048>051-090-091-032200-
...NORTHEAST COLORADO...

CITY           SKY/WX    TMP DP  RH WIND       PRES   REMARKS
GREELEY ARPT   CLOUDY    66  37  34 NW21G38   29.95R THUNDER
AKRON          SUNNY     75  36  24 N9        29.94S
BURLINGTON     PTSUNNY   79  37  22 NE8       29.91S
WRAY           SUNNY     84  37  18 NW12      29.88S
STERLING       SUNNY     73  41  31 NE13      29.91F
HOLYOKE        NOT AVBL
FORT MORGAN    SUNNY     76 -28   1 NE15G21   29.93F
$$

COZ086-089-092>099-032200-
...SOUTHEAST COLORADO...

CITY           SKY/WX    TMP DP  RH WIND       PRES   REMARKS
PUEBLO         CLOUDY    75  33  21 N23G35    29.90R
LA JUNTA       MOSUNNY   83  36  18 VRB3G20   29.86F
LAMAR          SUNNY     84  38  19 VRB3      29.83F
SPRINGFIELD      N/A     73  36  25 MISG      29.91R
$$



USA.gov is the U.S. government's official web portal to all federal, state and local government web resources and services.